Showing default

QIANFAN-64, 62794

Orbit data source: Space-Track

QIANFAN-64, 62794 is a Chinese payload satellite in LEO that was launched on Thu, 23 Jan 2025 UTC via a CHANG ZHENG 6A launch vehicle from the Taiyaun Space Center, China (TSC). Payload-class satellites include a variety of spacecraft equipped with specific instruments for various scientific and technological missions. These include communications satellites like Starlink; space stations such as the ISS; scientific satellites like the Hubble; Earth observation satellites from companies like Planet Labs, Umbra, and HawkEye 360; GPS; miniature CubeSats for education and research; and military/defense satellites.

Loading next visibility...
Identifier
62794, 2025-016K
Orbit
LEO
Country
Flag of CNCN / PRC
Related business
Manufacturer
SECM
Mission
Operational Commercial Communications
Bus & Motor
QIANFAN, Unknown motor
Mass
267 kg wet, ~267 kg dry
Launch date (UTC)
2025-01-23 (8 months ago)
Launch vehicle
CHANG ZHENG 6A
Launch site
Taiyaun Space Center, China (TSC)
Object type
Payload
Rocket body
Debris
Shape & HBR
Box + 1 Pan, 5.0 m
Radar Cross Section
13.200 m², Large (>1 m²)

Expand to show TLE details & history
Last TLE update: 4 hours ago

TLE from 4 hours ago
0 QIANFAN-64
1 62794U 25016K   25259.27190745  .00000053  00000-0  61733-4 0  9992
2 62794  88.9759 112.0847 0012319 229.5024 130.5055 13.52420497 35452
Epoch: 2025-09-16T06:31Z
TLE epoch observation values (Epoch: 2025-09-16T06:31:32.803Z)
Latitude
-0.00006°
Longitude
18.73343°
Altitude
1,072.284 km
Speed
7.313 km/s
True Right ascension
07h 28m 20s
True Declination
0° 00' 00"
Sunlit
Object was in daylight at epoch
Visualization orbit readout
Latitude
Unknown
Longitude
Unknown
Altitude
Unknown
Speed
Unknown
Apparent Right ascension
Unknown
Apparent Declination
Unknown
Sunlit
N/A
Visualization observer readout
Local Sidereal Time
03:04:11
Azimuth
Unknown
Elevation
Unknown
Doppler factor
Unknown
Orbital elements
Apogee altitude
1,069.579 km
Perigee altitude
1,051.252 km
Semi-major axis
7,438.552 km
Eccentricity
0.00123
Inclination
88.9759°
RAAN
112.0847°
Arg. of periapsis
229.5024°
True anomaly
130.61273°
Mean anomaly
130.5055°
Eccentric anomaly
130.55912°
Mean motion
3.38307 °/min
Orbital period
106.41 mins
BSTAR
0.000061733
Loading maneuver chart data...
Computing Atmospheric mass density...
Loading historical data...
Loading historical data...
Loading historical data...
Loading historical data...
Loading historical data...
Loading historical data...
Loading historical data...

Documentation

Showing up to 5 results
|